STARLINK-32434, 61913

Orbit data source: Space-Track

STARLINK-32434, 61913 is a payload satellite owned by SpaceX/Seattle (US) in LEO that was launched on Mon, 11 Nov 2024 UTC via an FALCON 9 launch vehicle from the Air Force Eastern Test Range (AFETR). Payload-class satellites include a variety of spacecraft equipped with specific instruments for various scientific and technological missions. These include communications satellites like Starlink; space stations such as the ISS; scientific satellites like the Hubble; Earth observation satellites from companies like Planet Labs, Umbra, and HawkEye 360; GPS; miniature CubeSats for education and research; and military/defense satellites.

Loading next visibility...
Identifier
61913, 2024-207B
Orbit
LEO
Country
Flag of USUS
Related business
Manufacturer
SpaceX/Seattle
Mission
Operational Commercial Communications
Bus & Motor
STARLINK V2M, Unknown motor
Mass
730 kg wet, ~700 kg dry
Launch date (UTC)
2024-11-11 (1 year ago)
Launch vehicle
FALCON 9
Launch site
Air Force Eastern Test Range (AFETR)
Object type
Payload
Rocket body
Debris
Shape & HBR
Box + 2 Pan, 17.7 m
Radar Cross Section
33.884 m², Large (>1 m²)

Expand to show TLE details & history
Last TLE update: 9 hours ago

TLE from 9 hours ago
0 STARLINK-32434
1 61913U 24207B   26073.23495027  .00026333  00000-0  96201-3 0  9993
2 61913  42.9954 256.3825 0000750 196.1379 163.9449 15.27614079 75419
Epoch: 2026-03-14T05:38Z
TLE epoch observation values (Epoch: 2026-03-14T05:38:19.703Z)
Latitude
Longitude
-0.05864°
Altitude
483.216 km
Speed
7.625 km/s
True Right ascension
17h 05m 31s
True Declination
0° 00' 00"
Sunlit
Object was in daylight at epoch
Visualization orbit readout
Latitude
Unknown
Longitude
Unknown
Altitude
Unknown
Speed
Unknown
Apparent Right ascension
Unknown
Apparent Declination
Unknown
Sunlit
N/A
Visualization observer readout
Local Sidereal Time
19:16:46
Azimuth
Unknown
Elevation
Unknown
Doppler factor
Unknown
Orbital elements
Apogee altitude
485.408 km
Perigee altitude
484.378 km
Semi-major axis
6,863.03 km
Eccentricity
0.00008
Inclination
42.9954°
RAAN
256.3825°
Arg. of periapsis
196.1379°
True anomaly
163.94728°
Mean anomaly
163.9449°
Eccentric anomaly
163.94609°
Mean motion
3.81741 °/min
Orbital period
94.3 mins
BSTAR
0.00096201
Loading maneuver chart data...
Computing Atmospheric mass density...
Loading historical data...
Loading historical data...
Loading historical data...
Loading historical data...
Loading historical data...
Loading historical data...
Loading historical data...

Documentation

Showing up to 5 results
|